Flag for U.S.A. Weather past 2 weeks in Sedona, Arizona, U.S.A.

Now
73 °F

Sunny.


Feels Like: 77 °F
Forecast: 69 / 87 °F
Wind: 3 mph from Northeast

Location: Sedona Airport

Current Time: Aug 2, 2015 at 7:46:15 AM

Latest Report: Aug 2, 2015 at 7:15 AM


Visibility: 10 mi

Pressure: 30.12 "Hg (25.98 "Hg at 1282m altitude)

Humidity: 53%

Dew point: 55 °F

Location of SedonaLocation

Historic Weather in Sedona — Graph

°F

Sedona temperature yesterday

Maximum temperature yesterday: 88 °F (at 1:15 PM)
Minimum temperature yesterday: 70 °F (at 4:55 AM)
Average temperature yesterday: 77 °F

Past Weeks' High & Low Weather Summary

 TemperatureHumidityPressure
High93 °F (Jul 25, 4:55 PM)100% (Jul 18, 9:15 PM)30.32 "Hg (Jul 18, 9:15 PM)
Low61 °F (Jul 18, 7:15 PM)10% (Jul 26, 5:35 PM)30.00 "Hg (Jul 21, 5:55 PM)
Average77 °F40%30.16 "Hg
* Reported Jul 18 6:15 AM — Aug 2 6:55 AM, Sedona, Weather by CustomWeather, © 2015

Note: Actual official high and low records may vary slightly from our data, if they occured in-between our weather recording intervals... More about our weather records

Advertising

Sedona weather history for previous 24 hours

 ConditionsComfort  
Time TempWeatherWind HumidityBarometerVisibility
6:55 AM
Sun, Aug 2
72 °FSunny.3 mph57%30.11 "Hg10 mi
6:35 AM72 °FSunny.6 mph57%30.11 "Hg10 mi
6:15 AM70 °FSunny.5 mph60%30.11 "Hg10 mi
5:55 AM70 °FSunny.6 mph60%30.10 "Hg10 mi
5:35 AM70 °FClear.No wind60%30.10 "Hg10 mi
5:15 AM70 °FClear.No wind60%30.10 "Hg10 mi
4:55 AM70 °FClear.No wind60%30.10 "Hg10 mi
4:35 AM72 °FPassing clouds.No wind57%30.10 "Hg10 mi
4:15 AM72 °FPassing clouds.No wind57%30.10 "Hg10 mi
3:55 AM73 °FMostly cloudy.No wind50%30.10 "Hg10 mi
3:35 AM72 °FPartly cloudy.3 mph53%30.10 "Hg10 mi
3:15 AM72 °FClear.No wind53%30.10 "Hg10 mi
2:55 AM72 °FPassing clouds.3 mph53%30.10 "Hg10 mi
2:35 AM73 °FPartly cloudy.6 mph50%30.10 "Hg10 mi
2:15 AM73 °FPartly cloudy.9 mph50%30.10 "Hg10 mi
1:55 AM73 °FMostly cloudy.6 mph50%30.10 "Hg10 mi
1:35 AM73 °FPassing clouds.7 mph50%30.10 "Hg10 mi
1:15 AM72 °FClear.8 mph53%30.10 "Hg10 mi
12:55 AM73 °FClear.7 mph50%30.10 "Hg10 mi
12:35 AM73 °FClear.3 mph47%30.10 "Hg10 mi
12:15 AM73 °FClear.6 mph50%30.10 "Hg10 mi
11:55 PM
Sat, Aug 1
73 °FClear.7 mph47%30.09 "Hg10 mi
11:35 PM73 °FClear.6 mph47%30.10 "Hg10 mi
11:15 PM73 °FClear.8 mph50%30.10 "Hg10 mi
10:55 PM75 °FClear.8 mph44%30.10 "Hg10 mi
10:35 PM75 °FClear.9 mph47%30.10 "Hg10 mi
10:15 PM77 °FClear.7 mph44%30.10 "Hg10 mi
9:55 PM77 °FClear.8 mph42%30.10 "Hg10 mi
9:15 PM77 °FPassing clouds.9 mph44%30.10 "Hg10 mi
8:55 PM77 °FPassing clouds.10 mph44%30.10 "Hg10 mi
8:15 PM79 °FClear.13 mph45%30.10 "Hg10 mi
7:55 PM81 °FClear.3 mph39%30.09 "Hg10 mi
7:15 PM81 °FScattered clouds.No wind37%30.07 "Hg10 mi
6:55 PM82 °FSunny.3 mph37%30.07 "Hg10 mi
6:15 PM82 °FSunny.6 mph37%30.06 "Hg10 mi
5:55 PM82 °FSunny.9 mph40%30.06 "Hg10 mi
5:35 PM86 °FScattered clouds.9 mph35%30.06 "Hg10 mi
5:15 PM86 °FOvercast.10 mph33%30.07 "Hg10 mi
4:35 PM88 °FThundershowers. Scattered clouds.7 mph31%30.08 "Hg10 mi
4:15 PM86 °FSunny.3 mph31%30.09 "Hg10 mi
3:55 PM86 °FSunny.5 mph31%30.09 "Hg10 mi
3:35 PM86 °FThundershowers. Sunny.5 mph33%30.10 "Hg10 mi
3:15 PM88 °FSunny.7 mph29%30.11 "Hg10 mi
2:15 PM86 °FSunny.5 mph33%30.13 "Hg10 mi
1:35 PM84 °FThundershowers. Sunny.5 mph35%30.15 "Hg10 mi
1:15 PM88 °FSunny.5 mph33%30.16 "Hg10 mi
12:55 PM82 °FSunny.No wind40%30.16 "Hg10 mi
12:35 PM84 °FSunny.3 mph40%30.17 "Hg10 mi
12:15 PM81 °FSunny.5 mph45%30.19 "Hg10 mi
11:55 AM81 °FThunderstorms. Sunny.No wind48%30.19 "Hg10 mi
11:35 AM79 °FScattered clouds.No wind48%30.20 "Hg10 mi
11:15 AM77 °FScattered clouds.3 mph51%30.21 "Hg10 mi
10:55 AM77 °FScattered clouds.No wind57%30.21 "Hg10 mi
10:15 AM75 °FPartly sunny.No wind54%30.21 "Hg10 mi
9:55 AM75 °FPartly sunny.3 mph54%30.21 "Hg10 mi
9:35 AM75 °FOvercast.No wind57%30.21 "Hg10 mi
9:15 AM73 °FBroken clouds.No wind65%30.21 "Hg10 mi
8:55 AM73 °FPartly sunny.No wind61%30.21 "Hg10 mi
8:15 AM73 °FScattered clouds.5 mph57%30.21 "Hg10 mi
7:55 AM72 °FScattered clouds.6 mph61%30.21 "Hg10 mi
7:35 AM72 °FScattered clouds.6 mph61%30.21 "Hg10 mi
7:15 AM72 °FScattered clouds.7 mph61%30.21 "Hg10 mi
Weather by CustomWeather, © 2015

See weather overviewHow to use our weather pages